Weather in Klinovka

Russia / Republic of Mordovia     53°58′24″N   43°40′12″E
temp.,
°C
wind,
m/s
gust,
m/s
humid.,
%
clouds,
%
prec.,
mm/h
press.,
hPa
HPBL,
m
1 march, mon
mon100:00−16nnw129756 0.0 102020
03:00−16nw229628 0.0 102220
06:00−17nw239783 0.0 102320
09:00−14nw239580 0.0 1025120
12:00−10wnw349144 0.0 1024249
15:00−7wsw359365 0.0 1023416
18:00−8wsw4895100 0.0 1022145
21:00−8wsw5119499 0.0 1020324
2 march, tue
tue200:00−4wsw61293100 0.1 1017465
03:00−2wsw81494100 0.5 1014610
06:00−1wsw81493100 0.3 1010570
09:00+1wsw81495100 0.3 1008720
12:00+1w61299100 0.5 1005596
15:00+1wnw61193100 0.9 1005651
18:00−3wnw369474 0.3 1005101
21:00−4wnw489484 0.3 1006140
3 march, wed
wed300:00−5wnw4995100 0.0 1006177
03:00−7wnw499697 0.1 1007176
06:00−5nw5119596 0.2 1007431
09:00−6nnw6129196 0.3 1009639
12:00−5nw6989100 0.1 1010766
15:00−5nw71087100 0.2 1011799
18:00−6wnw4108896 0.1 1012353
21:00−7w5129469 0.1 1013320
4 march, thu
thu400:00−5w5129563 0.0 1011316
03:00−5w5119576 0.1 1011347
06:00−4wsw6119399 0.1 1009537
09:00−3wsw8139299 0.2 1007629
12:00−1sw91690100 0.1 1004702
15:00+1wsw101688100 0.1 10021097
18:000wsw91685100 0.0 9991061
21:000wsw91786100 0.0 998869
5 march, fri
fri500:000w81497100 0.7 998860
03:00−2nw51093100 1.3 1001531
06:00−8nw369555 0.0 100597
09:00−8nw249228 0.0 1008122
12:00−5wnw23856 0.0 1010273
15:00−4w248730 0.0 1012425
18:00−8w228969 0.0 101321
21:00−10wnw119254 0.0 101521